CZ-6A DEB, 61277

Orbit data source: Space-Track

CZ-6A DEB, 61277 is space debris in LEO originally from a launch on Tue, 06 Aug 2024 UTC launched from the Taiyaun Space Center, China (TSC). Debris objects in space refer to the collection of defunct objects orbiting the Earth. Examples of debris include non-operational satellites, rocket bodies, and fragments generated from explosions, collisions, or faulty payload assembly.

Loading next visibility...
Identifier
61277, 2024-140SN
Orbit
LEO
Country
Flag of CNCN / PRC
Related business
Manufacturer
SAST
Mission
Spacecraft
Bus & Motor
Unknown
Mass
Unknown
Launch date (UTC)
2024-08-06 (1 year ago)
Launch vehicle
Unknown
Launch site
Taiyaun Space Center, China (TSC)
Object type
Payload
Rocket body
Debris
Shape & HBR
Unknown shape, 0.1 m
Radar Cross Section
Small (<0.1 m²)

Expand to show TLE details & history
Last TLE update: 11 hours ago

TLE from 11 hours ago
0 CZ-6A DEB
1 61277U 24140SN  25349.74391521  .00004275  00000-0  12081-2 0  9991
2 61277  88.4230 259.1013 0086173 261.9297  97.2123 14.43335656 68561
Epoch: 2025-12-15T17:51Z
TLE epoch observation values (Epoch: 2025-12-15T17:51:14.274Z)
Latitude
0.00006°
Longitude
-93.34626°
Altitude
758.813 km
Speed
7.471 km/s
True Right ascension
17h 16m 24s
True Declination
0° 00' 00"
Sunlit
Object was in daylight at epoch
Visualization orbit readout
Latitude
Unknown
Longitude
Unknown
Altitude
Unknown
Speed
Unknown
Apparent Right ascension
Unknown
Apparent Declination
Unknown
Sunlit
N/A
Visualization observer readout
Local Sidereal Time
03:22:57
Azimuth
Unknown
Elevation
Unknown
Doppler factor
Unknown
Orbital elements
Apogee altitude
805.798 km
Perigee altitude
683.043 km
Semi-major axis
7,122.557 km
Eccentricity
0.00862
Inclination
88.423°
RAAN
259.1013°
Arg. of periapsis
261.9297°
True anomaly
98.19059°
Mean anomaly
97.2123°
Eccentric anomaly
97.70158°
Mean motion
3.61068 °/min
Orbital period
99.7 mins
BSTAR
0.0012081
Loading maneuver chart data...
Computing Atmospheric mass density...
Loading historical data...
Loading historical data...
Loading historical data...
Loading historical data...
Loading historical data...
Loading historical data...
Loading historical data...

Documentation

Showing up to 5 results
|